Location: Carrizal
(9.8472°N, 67.3428°W)
Time: 16:30:15
(UTC+00:00)

ACS3 Solar Sail - Visible Passes

Search period start: 23 June 2024 00:00
Search period end: 03 July 2024 00:00
Orbit: 992 x 1024 km, 97.4° (Epoch: 23 June)

Date Brightness Start Highest point End Pass type
(mag) Time Alt. Az. Time Alt. Az. Time Alt. Az.
23 Jun 7.1 02:31:41 17° NNW 02:31:41 17° NNW 02:32:58 10° NNW visible
24 Jun 7.1 01:21:08 11° NE 01:21:08 11° NE 01:21:30 10° NNE visible
24 Jun 7.5 03:06:29 11° NW 03:06:29 11° NW 03:06:47 10° NNW visible
25 Jun 6.9 01:55:56 17° NNE 01:55:56 17° NNE 01:57:23 10° N visible
26 Jun 7.1 02:30:44 18° NNW 02:30:44 18° NNW 02:32:06 10° NNW visible
27 Jun 7.0 01:20:11 12° NE 01:20:11 12° NE 01:20:45 10° NNE visible
27 Jun 7.5 03:05:31 12° NW 03:05:31 12° NW 03:05:52 10° NW visible
28 Jun 6.8 01:54:59 18° NNE 01:54:59 18° NNE 01:56:34 10° N visible
29 Jun 7.0 02:29:47 18° NNW 02:29:47 18° NNW 02:31:14 10° NNW visible
30 Jun 7.0 01:19:14 13° NE 01:19:14 13° NE 01:20:00 10° NNE visible
30 Jun 7.5 03:04:35 12° NW 03:04:35 12° NW 03:04:57 10° NW visible
01 Jul 6.8 01:54:03 19° NNE 01:54:03 19° NNE 01:55:44 10° N visible
02 Jul 7.0 02:28:51 18° NNW 02:28:51 18° NNW 02:30:21 10° NNW visible
